QPF
0.05 0.04 0.04 0.04 0.04 0.06 0.07 0.06 0.11 0.12 0.10 0.08 0.06 0.07 0.07 0.06 0.06 0.06 0.08 0.07 0.07 0.06 0.05 0.05 0.04 0.03 0.02 0.02 0.02 0.02 0.01 0.01 0.01 0.01 0.01 0.01 0.01 0.00 0.01 0.01 0.01 0.01 0.01
0.07 0.05 0.07 0.06 0.05 0.06 0.07 0.07 0.07 0.07 0.08 0.07 0.06 0.08 0.11 0.09 0.09 0.07 0.07 0.07 0.06 0.05 0.05 0.05 0.04 0.03 0.03 0.03 0.02 0.02 0.02 0.01 0.02 0.02 0.01 0.01 0.01 0.01 0.00 0.01 0.01 0.01 0.02
0.03 0.05 0.07 0.07 0.05 0.05 0.05 0.05 0.04 0.05 0.06 0.09 0.11 0.11 0.12 0.11 0.12 0.10 0.08 0.07 0.05 0.04 0.04 0.05 0.04 0.03 0.03 0.03 0.02 0.02 0.02 0.01 0.02 0.02 0.03 0.02 0.01 0.01 0.01 0.01 0.01 0.02 0.02
0.04 0.06 0.07 0.09 0.07 0.04 0.03 0.03 0.04 0.03 0.03 0.04 0.06 0.07 0.11 0.16 0.16 0.14 0.12 0.08 0.05 0.04 0.03 0.04 0.04 0.04 0.03 0.03 0.02 0.02 0.02 0.02 0.02 0.02 0.02 0.02 0.02 0.02 0.01 0.01 0.01 0.01 0.02
0.04 0.06 0.08 0.07 0.06 0.04 0.04 0.05 0.05 0.04 0.04 0.05 0.07 0.08 0.11 0.15 0.12 0.11 0.10 0.09 0.08 0.08 0.06 0.05 0.03 0.02 0.02 0.02 0.02 0.02 0.02 0.02 0.02 0.02 0.02 0.02 0.03 0.03 0.03 0.01 0.01 0.01 0.01
0.03 0.04 0.05 0.04 0.04 0.05 0.05 0.07 0.08 0.10 0.12 0.14 0.13 0.11 0.10 0.11 0.09 0.09 0.09 0.08 0.07 0.06 0.06 0.06 0.04 0.03 0.02 0.02 0.02 0.02 0.02 0.02 0.02 0.02 0.02 0.02 0.03 0.03 0.04 0.03 0.01 0.01 0.01
0.03 0.03 0.03 0.03 0.04 0.05 0.06 0.07 0.10 0.14 0.17 0.17 0.12 0.08 0.08 0.06 0.06 0.06 0.06 0.05 0.05 0.04 0.04 0.05 0.04 0.03 0.02 0.01 0.01 0.01 0.02 0.02 0.02 0.02 0.02 0.03 0.04 0.04 0.05 0.04 0.02 0.01 0.01
0.02 0.02 0.02 0.02 0.03 0.04 0.05 0.06 0.07 0.06 0.07 0.07 0.05 0.04 0.04 0.03 0.05 0.05 0.04 0.05 0.05 0.04 0.04 0.04 0.04 0.03 0.03 0.02 0.02 0.02 0.02 0.02 0.02 0.02 0.02 0.03 0.03 0.03 0.04 0.04 0.04 0.03 0.02
0.02 0.03 0.03 0.04 0.04 0.04 0.04 0.05 0.05 0.06 0.06 0.05 0.03 0.03 0.03 0.04 0.03 0.03 0.03 0.04 0.04 0.04 0.04 0.04 0.04 0.04 0.04 0.03 0.03 0.03 0.03 0.03 0.02 0.03 0.02 0.02 0.02 0.02 0.02 0.03 0.04 0.03 0.03
0.03 0.03 0.04 0.06 0.05 0.05 0.04 0.02 0.03 0.04 0.05 0.04 0.03 0.05 0.05 0.04 0.03 0.03 0.03 0.03 0.04 0.03 0.03 0.03 0.03 0.04 0.04 0.03 0.03 0.02 0.02 0.02 0.03 0.03 0.02 0.02 0.02 0.02 0.02 0.01 0.02 0.02 0.03
0.03 0.03 0.05 0.04 0.02 0.02 0.01 0.01 0.01 0.02 0.02 0.02 0.03 0.04 0.05 0.05 0.06 0.06 0.04 0.03 0.03 0.03 0.02 0.03 0.03 0.03 0.02 0.01 0.01 0.01 0.01 0.02 0.02 0.02 0.02 0.02 0.02 0.02 0.01 0.01 0.01 0.01 0.02
0.02 0.02 0.02 0.01 0.01 0.01 0.01 0.01 0.02 0.01 0.01 0.01 0.01 0.02 0.03 0.04 0.05 0.07 0.07 0.05 0.04 0.04 0.03 0.03 0.03 0.01 0.01 0.01 0.01 0.01 0.01 0.01 0.02 0.02 0.03 0.02 0.02 0.02 0.02 0.01 0.01 0.01 0.01
0.02 0.02 0.01 0.01 0.01 0.01 0.01 0.01 0.01 0.01 0.01 0.01 0.01 0.01 0.02 0.03 0.03 0.04 0.04 0.03 0.03 0.03 0.02 0.02 0.01 0.00 0.00 0.01 0.01 0.01 0.01 0.01 0.01 0.02 0.02 0.01 0.01 0.02 0.01 0.01 0.01 0.01 0.01
0.02 0.01 0.01 0.01 0.01 0.01 0.01 0.00 0.01 0.01 0.01 0.01 0.01 0.01 0.01 0.02 0.03 0.04 0.03 0.02 0.02 0.02 0.02 0.01 0.00 0.00 0.00 0.00 0.01 0.00 0.00 0.00 0.01 0.01 0.01 0.01 0.02 0.01 0.01 0.01 0.01 0.01 0.02
0.05 0.03 0.01 0.01 0.01 0.01 0.01 0.00 0.00 0.01 0.01 0.01 0.02 0.02 0.02 0.02 0.02 0.02 0.02 0.01 0.01 0.01 0.01 0.01 0.01 0.01 0.00 0.00 0.00 0.00 0.00 0.01 0.01 0.01 0.01 0.02 0.02 0.02 0.02 0.02 0.02 0.02 0.04
0.06 0.05 0.03 0.01 0.01 0.01 0.00 0.00 0.00 0.01 0.01 0.01 0.02 0.02 0.01 0.01 0.01 0.01 0.01 0.01 0.01 0.01 0.01 0.01 0.00 0.01 0.01 0.00 0.00 0.00 0.00 0.00 0.01 0.01 0.01 0.01 0.01 0.01 0.02 0.02 0.02 0.02 0.03
0.06 0.06 0.03 0.02 0.02 0.01 0.01 0.01 0.01 0.01 0.02 0.02 0.01 0.01 0.01 0.01 0.01 0.01 0.01 0.01 0.01 0.01 0.01 0.01 0.01 0.01 0.01 0.00 0.00 0.01 0.01 0.01 0.01 0.01 0.01 0.01 0.01 0.01 0.02 0.02 0.02 0.02 0.02
0.04 0.04 0.03 0.02 0.02 0.01 0.02 0.03 0.01 0.02 0.04 0.02 0.02 0.02 0.02 0.01 0.01 0.01 0.01 0.01 0.01 0.00 0.00 0.01 0.01 0.01 0.01 0.00 0.00 0.01 0.01 0.00 0.01 0.01 0.01 0.01 0.01 0.01 0.02 0.03 0.02 0.02 0.02
0.02 0.02 0.02 0.02 0.01 0.02 0.04 0.04 0.02 0.03 0.06 0.03 0.03 0.02 0.02 0.02 0.02 0.01 0.01 0.01 0.01 0.01 0.01 0.01 0.01 0.01 0.01 0.01 0.01 0.01 0.00 0.00 0.01 0.01 0.02 0.02 0.02 0.02 0.02 0.03 0.02 0.01 0.01
0.02 0.03 0.02 0.02 0.02 0.03 0.05 0.03 0.02 0.03 0.03 0.03 0.03 0.02 0.01 0.01 0.01 0.01 0.01 0.02 0.01 0.01 0.01 0.01 0.01 0.01 0.01 0.01 0.01 0.01 0.00 0.00 0.01 0.01 0.01 0.01 0.01 0.02 0.02 0.03 0.03 0.02 0.01
0.03 0.02 0.02 0.02 0.02 0.03 0.04 0.03 0.02 0.01 0.01 0.01 0.02 0.01 0.01 0.01 0.01 0.01 0.01 0.02 0.02 0.03 0.02 0.01 0.01 0.02 0.01 0.01 0.01 0.01 0.01 0.00 0.01 0.01 0.02 0.01 0.00 0.00 0.01 0.01 0.02 0.01 0.01
0.04 0.02 0.02 0.02 0.02 0.02 0.03 0.03 0.02 0.02 0.01 0.01 0.01 0.01 0.01 0.01 0.01 0.02 0.02 0.02 0.02 0.02 0.02 0.01 0.01 0.01 0.01 0.01 0.00 0.00 0.00 0.00 0.00 0.01 0.01 0.01 0.00 0.00 0.00 0.00 0.01 0.01 0.01
0.03 0.02 0.02 0.02 0.01 0.01 0.02 0.01 0.02 0.02 0.01 0.01 0.01 0.01 0.01 0.01 0.01 0.01 0.01 0.01 0.02 0.01 0.01 0.01 0.01 0.01 0.01 0.00 0.00 0.00 0.00 0.00 0.00 0.01 0.01 0.00 0.00 0.00 0.00 0.00 0.00 0.01 0.01
0.03 0.03 0.02 0.02 0.02 0.03 0.03 0.01 0.01 0.01 0.01 0.01 0.01 0.01 0.01 0.01 0.01 0.01 0.01 0.01 0.01 0.01 0.01 0.01 0.01 0.01 0.01 0.00 0.00 0.00 0.00 0.00 0.00 0.00 0.01 0.01 0.00 0.00 0.00 0.00 0.01 0.01 0.01
0.03 0.03 0.02 0.02 0.03 0.03 0.02 0.01 0.01 0.01 0.01 0.02 0.02 0.01 0.01 0.01 0.01 0.01 0.01 0.01 0.01 0.01 0.01 0.01 0.01 0.01 0.01 0.01 0.01 0.01 0.01 0.01 0.01 0.01 0.01 0.01 0.00 0.00 0.00 0.00 0.00 0.01 0.01
0.03 0.04 0.03 0.03 0.03 0.02 0.02 0.02 0.02 0.01 0.01 0.01 0.01 0.01 0.01 0.01 0.01 0.01 0.00 0.00 0.01 0.01 0.00 0.00 0.01 0.00 0.00 0.00 0.01 0.01 0.01 0.01 0.01 0.00 0.00 0.00 0.00 0.00 0.00 0.00 0.01 0.01 0.01
MSLP
1015.75 1015.31 1014.88 1014.45 1014.01 1013.57 1013.11 1012.67 1012.24 1011.82 1011.42 1011.02 1010.61 1010.19 1009.73 1009.25 1008.77 1008.30 1007.87 1007.54 1007.32 1007.23 1007.28 1007.46 1007.72 1008.05 1008.40 1008.73 1009.03 1009.28 1009.49 1009.64 1009.77 1009.86 1009.93 1009.96 1009.97 1009.92 1009.83 1009.69 1009.52 1009.32 1009.13
1016.06 1015.61 1015.17 1014.70 1014.21 1013.70 1013.20 1012.73 1012.29 1011.91 1011.56 1011.23 1010.88 1010.51 1010.07 1009.59 1009.06 1008.54 1008.06 1007.67 1007.42 1007.31 1007.35 1007.53 1007.79 1008.10 1008.41 1008.69 1008.92 1009.09 1009.22 1009.33 1009.44 1009.55 1009.67 1009.78 1009.87 1009.91 1009.88 1009.78 1009.61 1009.40 1009.17
1016.34 1015.91 1015.47 1014.99 1014.46 1013.91 1013.37 1012.86 1012.42 1012.05 1011.74 1011.46 1011.16 1010.83 1010.42 1009.93 1009.38 1008.82 1008.29 1007.86 1007.57 1007.43 1007.46 1007.62 1007.87 1008.15 1008.42 1008.64 1008.81 1008.92 1009.00 1009.09 1009.20 1009.35 1009.53 1009.73 1009.92 1010.05 1010.10 1010.04 1009.90 1009.67 1009.41
1016.59 1016.20 1015.78 1015.30 1014.76 1014.19 1013.61 1013.08 1012.62 1012.25 1011.96 1011.70 1011.44 1011.13 1010.73 1010.24 1009.68 1009.09 1008.53 1008.06 1007.73 1007.57 1007.57 1007.71 1007.93 1008.19 1008.42 1008.60 1008.72 1008.80 1008.86 1008.94 1009.07 1009.26 1009.51 1009.79 1010.06 1010.28 1010.40 1010.39 1010.27 1010.05 1009.77
1016.83 1016.49 1016.11 1015.66 1015.12 1014.53 1013.93 1013.37 1012.89 1012.50 1012.20 1011.95 1011.69 1011.39 1011.00 1010.51 1009.93 1009.32 1008.73 1008.23 1007.87 1007.67 1007.64 1007.76 1007.96 1008.19 1008.40 1008.57 1008.67 1008.74 1008.80 1008.89 1009.04 1009.27 1009.57 1009.91 1010.24 1010.51 1010.68 1010.72 1010.63 1010.43 1010.14
1017.06 1016.79 1016.46 1016.04 1015.52 1014.93 1014.31 1013.72 1013.20 1012.79 1012.46 1012.19 1011.92 1011.60 1011.20 1010.70 1010.11 1009.47 1008.85 1008.32 1007.92 1007.70 1007.64 1007.74 1007.92 1008.15 1008.37 1008.54 1008.66 1008.75 1008.82 1008.93 1009.10 1009.35 1009.66 1010.02 1010.37 1010.66 1010.86 1010.93 1010.86 1010.68 1010.40
1017.31 1017.10 1016.82 1016.44 1015.95 1015.36 1014.73 1014.11 1013.55 1013.09 1012.72 1012.40 1012.10 1011.75 1011.33 1010.80 1010.18 1009.52 1008.87 1008.31 1007.88 1007.63 1007.55 1007.63 1007.82 1008.06 1008.31 1008.51 1008.67 1008.79 1008.90 1009.02 1009.19 1009.43 1009.72 1010.05 1010.38 1010.66 1010.86 1010.93 1010.89 1010.73 1010.50
1017.57 1017.42 1017.19 1016.85 1016.38 1015.80 1015.15 1014.51 1013.91 1013.40 1012.97 1012.59 1012.23 1011.84 1011.37 1010.80 1010.15 1009.46 1008.78 1008.19 1007.74 1007.46 1007.37 1007.45 1007.65 1007.92 1008.21 1008.47 1008.68 1008.85 1008.99 1009.12 1009.28 1009.48 1009.72 1009.98 1010.25 1010.48 1010.65 1010.72 1010.70 1010.58 1010.39
1017.84 1017.73 1017.54 1017.23 1016.78 1016.20 1015.55 1014.88 1014.24 1013.67 1013.18 1012.74 1012.31 1011.86 1011.33 1010.72 1010.03 1009.31 1008.60 1007.98 1007.50 1007.21 1007.11 1007.19 1007.42 1007.73 1008.07 1008.39 1008.67 1008.89 1009.05 1009.19 1009.32 1009.46 1009.62 1009.80 1009.98 1010.14 1010.26 1010.32 1010.32 1010.25 1010.11
1018.09 1018.01 1017.84 1017.55 1017.10 1016.53 1015.87 1015.18 1014.50 1013.89 1013.34 1012.83 1012.34 1011.82 1011.24 1010.58 1009.85 1009.09 1008.36 1007.72 1007.22 1006.91 1006.81 1006.90 1007.15 1007.50 1007.90 1008.28 1008.62 1008.88 1009.07 1009.20 1009.29 1009.37 1009.44 1009.52 1009.60 1009.69 1009.76 1009.80 1009.82 1009.79 1009.72
1018.32 1018.24 1018.07 1017.77 1017.32 1016.74 1016.07 1015.37 1014.68 1014.03 1013.43 1012.87 1012.32 1011.74 1011.11 1010.40 1009.64 1008.86 1008.11 1007.45 1006.94 1006.63 1006.52 1006.63 1006.89 1007.27 1007.71 1008.14 1008.52 1008.82 1009.03 1009.15 1009.21 1009.22 1009.20 1009.19 1009.19 1009.19 1009.22 1009.25 1009.28 1009.29 1009.28
1018.51 1018.41 1018.22 1017.89 1017.42 1016.83 1016.16 1015.45 1014.75 1014.08 1013.45 1012.85 1012.25 1011.63 1010.96 1010.23 1009.44 1008.65 1007.89 1007.23 1006.72 1006.40 1006.30 1006.40 1006.68 1007.07 1007.53 1007.99 1008.39 1008.71 1008.93 1009.04 1009.07 1009.03 1008.95 1008.86 1008.78 1008.73 1008.71 1008.73 1008.76 1008.80 1008.83
1018.67 1018.52 1018.27 1017.90 1017.40 1016.80 1016.13 1015.42 1014.72 1014.05 1013.41 1012.79 1012.17 1011.52 1010.82 1010.07 1009.29 1008.49 1007.75 1007.09 1006.59 1006.28 1006.17 1006.27 1006.54 1006.92 1007.38 1007.84 1008.25 1008.58 1008.79 1008.90 1008.90 1008.82 1008.70 1008.56 1008.43 1008.33 1008.27 1008.26 1008.29 1008.34 1008.38
1018.78 1018.56 1018.25 1017.82 1017.29 1016.67 1016.00 1015.31 1014.63 1013.96 1013.33 1012.70 1012.07 1011.41 1010.71 1009.96 1009.19 1008.42 1007.69 1007.07 1006.58 1006.28 1006.16 1006.25 1006.49 1006.85 1007.28 1007.71 1008.11 1008.42 1008.62 1008.72 1008.71 1008.61 1008.46 1008.29 1008.12 1007.99 1007.90 1007.86 1007.86 1007.89 1007.91
1018.84 1018.55 1018.16 1017.68 1017.11 1016.49 1015.82 1015.15 1014.49 1013.85 1013.23 1012.61 1011.98 1011.33 1010.63 1009.90 1009.16 1008.42 1007.74 1007.15 1006.69 1006.40 1006.28 1006.34 1006.54 1006.86 1007.23 1007.62 1007.97 1008.25 1008.44 1008.52 1008.50 1008.40 1008.24 1008.05 1007.86 1007.69 1007.56 1007.48 1007.43 1007.41 1007.39
1018.83 1018.47 1018.03 1017.50 1016.91 1016.29 1015.64 1015.00 1014.37 1013.75 1013.14 1012.54 1011.92 1011.27 1010.59 1009.89 1009.18 1008.50 1007.86 1007.32 1006.90 1006.62 1006.50 1006.53 1006.68 1006.94 1007.24 1007.56 1007.86 1008.09 1008.25 1008.31 1008.28 1008.17 1008.01 1007.81 1007.60 1007.41 1007.23 1007.09 1006.98 1006.89 1006.80
1018.76 1018.35 1017.87 1017.32 1016.73 1016.12 1015.50 1014.88 1014.28 1013.69 1013.10 1012.50 1011.89 1011.25 1010.60 1009.93 1009.26 1008.63 1008.05 1007.56 1007.18 1006.92 1006.79 1006.79 1006.90 1007.08 1007.31 1007.55 1007.77 1007.95 1008.06 1008.09 1008.05 1007.94 1007.77 1007.56 1007.34 1007.10 1006.88 1006.67 1006.48 1006.31 1006.14
1018.63 1018.20 1017.71 1017.17 1016.59 1016.01 1015.42 1014.84 1014.27 1013.69 1013.11 1012.52 1011.91 1011.28 1010.64 1010.00 1009.38 1008.80 1008.28 1007.84 1007.50 1007.26 1007.13 1007.10 1007.15 1007.26 1007.41 1007.56 1007.71 1007.82 1007.88 1007.88 1007.82 1007.70 1007.52 1007.30 1007.05 1006.78 1006.50 1006.22 1005.95 1005.69 1005.43
1018.45 1018.04 1017.57 1017.06 1016.53 1015.99 1015.44 1014.89 1014.33 1013.77 1013.19 1012.59 1011.97 1011.34 1010.72 1010.10 1009.52 1008.99 1008.52 1008.14 1007.83 1007.62 1007.49 1007.43 1007.43 1007.47 1007.54 1007.61 1007.68 1007.72 1007.73 1007.69 1007.61 1007.47 1007.27 1007.03 1006.75 1006.44 1006.10 1005.76 1005.41 1005.07 1004.73
1018.24 1017.88 1017.47 1017.02 1016.54 1016.05 1015.54 1015.02 1014.48 1013.91 1013.32 1012.70 1012.07 1011.44 1010.82 1010.22 1009.67 1009.18 1008.76 1008.42 1008.15 1007.95 1007.82 1007.74 1007.70 1007.68 1007.68 1007.68 1007.67 1007.66 1007.61 1007.54 1007.42 1007.26 1007.04 1006.78 1006.47 1006.11 1005.73 1005.33 1004.92 1004.51 1004.11
1018.05 1017.76 1017.42 1017.04 1016.62 1016.18 1015.71 1015.21 1014.67 1014.10 1013.49 1012.85 1012.20 1011.55 1010.93 1010.34 1009.82 1009.36 1008.98 1008.67 1008.43 1008.25 1008.11 1008.01 1007.94 1007.87 1007.81 1007.76 1007.69 1007.62 1007.53 1007.42 1007.27 1007.08 1006.85 1006.56 1006.22 1005.84 1005.41 1004.97 1004.51 1004.05 1003.60
1017.89 1017.68 1017.41 1017.11 1016.75 1016.36 1015.92 1015.43 1014.89 1014.30 1013.66 1013.00 1012.33 1011.67 1011.03 1010.46 1009.95 1009.51 1009.16 1008.87 1008.65 1008.48 1008.35 1008.23 1008.13 1008.03 1007.93 1007.83 1007.72 1007.61 1007.48 1007.34 1007.17 1006.96 1006.70 1006.39 1006.03 1005.63 1005.17 1004.69 1004.20 1003.71 1003.23
1017.78 1017.64 1017.45 1017.20 1016.90 1016.54 1016.12 1015.64 1015.09 1014.48 1013.82 1013.13 1012.44 1011.76 1011.12 1010.55 1010.04 1009.63 1009.29 1009.02 1008.81 1008.64 1008.50 1008.38 1008.26 1008.14 1008.01 1007.88 1007.75 1007.61 1007.46 1007.29 1007.10 1006.88 1006.60 1006.28 1005.91 1005.48 1005.01 1004.51 1004.00 1003.49 1002.98
1017.71 1017.63 1017.49 1017.30 1017.03 1016.70 1016.29 1015.80 1015.24 1014.61 1013.93 1013.23 1012.52 1011.83 1011.19 1010.61 1010.12 1009.70 1009.37 1009.11 1008.90 1008.73 1008.59 1008.45 1008.32 1008.18 1008.04 1007.90 1007.75 1007.60 1007.44 1007.27 1007.06 1006.83 1006.55 1006.21 1005.83 1005.39 1004.91 1004.41 1003.89 1003.36 1002.85
1017.67 1017.63 1017.53 1017.36 1017.11 1016.79 1016.39 1015.90 1015.33 1014.69 1014.00 1013.28 1012.57 1011.88 1011.24 1010.66 1010.17 1009.76 1009.42 1009.15 1008.94 1008.76 1008.60 1008.45 1008.31 1008.17 1008.03 1007.88 1007.74 1007.58 1007.42 1007.24 1007.04 1006.80 1006.51 1006.18 1005.79 1005.35 1004.87 1004.36 1003.84 1003.31 1002.78
1017.62 1017.60 1017.51 1017.36 1017.13 1016.82 1016.41 1015.93 1015.35 1014.72 1014.03 1013.32 1012.61 1011.93 1011.30 1010.73 1010.24 1009.82 1009.47 1009.19 1008.95 1008.75 1008.58 1008.42 1008.27 1008.12 1007.97 1007.83 1007.69 1007.55 1007.39 1007.22 1007.02 1006.79 1006.50 1006.17 1005.78 1005.34 1004.86 1004.35 1003.83 1003.29 1002.75
Thickness
5750 5750 5747 5745 5741 5738 5735 5732 5729 5726 5724 5721 5717 5713 5711 5711 5709 5708 5706 5704 5703 5703 5701 5699 5697 5696 5693 5691 5689 5687 5685 5683 5682 5679 5678 5680 5681 5681 5682 5682 5682 5682 5683
5744 5745 5742 5740 5737 5734 5732 5729 5724 5723 5720 5718 5715 5711 5708 5706 5705 5703 5702 5701 5699 5698 5697 5694 5692 5691 5689 5686 5684 5682 5679 5678 5677 5672 5668 5666 5669 5672 5677 5677 5677 5677 5677
5741 5739 5737 5735 5734 5730 5728 5727 5723 5720 5717 5715 5712 5707 5704 5701 5698 5697 5697 5697 5696 5695 5693 5690 5688 5686 5684 5681 5680 5678 5675 5671 5670 5669 5663 5658 5656 5661 5667 5669 5670 5670 5670
5740 5736 5734 5731 5729 5727 5726 5723 5720 5717 5715 5712 5707 5703 5697 5693 5692 5692 5692 5692 5692 5691 5690 5688 5685 5682 5680 5678 5676 5675 5672 5668 5664 5662 5661 5659 5656 5652 5654 5659 5662 5663 5663
5737 5733 5732 5730 5728 5725 5723 5721 5718 5714 5712 5709 5704 5699 5694 5691 5689 5688 5688 5687 5687 5686 5686 5684 5682 5679 5677 5675 5672 5670 5667 5665 5661 5658 5656 5653 5651 5650 5646 5647 5651 5654 5656
5734 5731 5730 5727 5725 5722 5720 5718 5714 5711 5709 5705 5702 5697 5693 5690 5686 5683 5682 5681 5681 5681 5680 5679 5677 5675 5673 5671 5668 5666 5663 5660 5658 5655 5652 5649 5646 5645 5643 5641 5643 5644 5648
5730 5728 5725 5723 5721 5719 5717 5715 5711 5708 5705 5702 5699 5696 5692 5688 5685 5682 5679 5677 5676 5675 5674 5674 5672 5670 5668 5667 5665 5662 5659 5656 5653 5651 5648 5646 5644 5643 5640 5638 5638 5638 5640
5729 5726 5724 5722 5719 5717 5715 5712 5709 5705 5702 5699 5696 5693 5690 5687 5683 5681 5678 5676 5674 5672 5671 5670 5668 5667 5665 5663 5661 5658 5655 5652 5649 5648 5645 5642 5641 5639 5638 5636 5633 5631 5631
5728 5725 5722 5720 5718 5715 5713 5710 5706 5703 5700 5697 5694 5690 5688 5685 5682 5679 5676 5674 5672 5670 5669 5667 5664 5663 5661 5659 5657 5654 5651 5648 5645 5643 5641 5638 5637 5636 5634 5633 5630 5627 5624
5725 5723 5721 5718 5716 5713 5711 5708 5704 5700 5697 5694 5691 5688 5685 5682 5680 5676 5673 5670 5669 5667 5665 5662 5660 5658 5656 5654 5651 5649 5646 5643 5641 5639 5637 5634 5632 5631 5630 5628 5626 5624 5621
5722 5721 5719 5717 5714 5711 5708 5704 5701 5698 5694 5691 5688 5685 5682 5679 5676 5672 5670 5668 5666 5664 5661 5659 5656 5653 5651 5649 5646 5643 5641 5639 5636 5634 5632 5630 5628 5626 5624 5623 5621 5619 5617
5720 5718 5716 5713 5711 5708 5705 5702 5699 5696 5693 5690 5686 5682 5679 5676 5672 5669 5667 5665 5663 5660 5657 5655 5652 5649 5646 5644 5641 5639 5637 5634 5631 5629 5627 5625 5624 5621 5619 5617 5616 5615 5613
5716 5714 5711 5709 5707 5704 5702 5700 5697 5694 5692 5688 5684 5680 5676 5672 5668 5666 5663 5661 5659 5656 5653 5651 5647 5645 5642 5640 5638 5635 5633 5630 5627 5625 5622 5620 5618 5616 5614 5612 5611 5610 5610
5712 5709 5706 5704 5703 5702 5700 5698 5695 5692 5689 5685 5681 5676 5673 5669 5665 5663 5660 5657 5654 5652 5649 5646 5644 5641 5638 5636 5634 5631 5628 5626 5623 5621 5618 5616 5614 5612 5610 5608 5606 5604 5602
5708 5706 5703 5701 5700 5698 5697 5696 5693 5690 5687 5682 5677 5673 5670 5666 5662 5659 5656 5653 5651 5648 5645 5642 5639 5637 5635 5632 5630 5627 5624 5621 5618 5616 5614 5612 5610 5609 5606 5605 5602 5599 5596
5706 5704 5702 5700 5698 5697 5695 5693 5690 5687 5683 5678 5674 5671 5667 5663 5659 5655 5652 5649 5646 5643 5640 5638 5635 5632 5631 5629 5626 5623 5619 5616 5612 5610 5609 5608 5606 5605 5603 5602 5599 5597 5592
5703 5701 5699 5698 5696 5695 5694 5690 5688 5684 5680 5676 5672 5668 5664 5659 5656 5653 5648 5645 5642 5639 5636 5633 5631 5628 5626 5625 5622 5620 5615 5611 5608 5605 5603 5603 5602 5599 5597 5596 5595 5593 5590
5699 5698 5696 5695 5694 5693 5691 5689 5685 5681 5677 5673 5669 5666 5662 5657 5653 5649 5645 5642 5639 5636 5633 5630 5627 5625 5623 5621 5618 5615 5611 5607 5604 5602 5599 5596 5595 5594 5592 5590 5588 5586 5586
5697 5695 5694 5693 5691 5689 5687 5684 5681 5678 5674 5670 5666 5664 5660 5655 5651 5646 5643 5640 5636 5633 5630 5627 5624 5621 5619 5618 5615 5612 5607 5603 5601 5599 5596 5594 5592 5591 5589 5586 5583 5582 5582
5695 5693 5691 5689 5686 5685 5683 5678 5675 5672 5669 5667 5665 5662 5658 5653 5649 5645 5641 5638 5634 5631 5628 5625 5622 5619 5616 5614 5611 5608 5603 5600 5597 5595 5594 5592 5590 5589 5586 5582 5579 5577 5577
5692 5691 5687 5684 5681 5680 5677 5672 5670 5668 5667 5665 5662 5658 5655 5651 5647 5643 5639 5636 5632 5628 5625 5622 5619 5617 5614 5612 5608 5605 5600 5597 5594 5592 5590 5589 5588 5586 5584 5581 5578 5577 5576
5685 5685 5681 5678 5677 5675 5671 5667 5665 5666 5664 5661 5658 5654 5652 5649 5646 5640 5636 5633 5629 5624 5621 5617 5615 5613 5611 5608 5605 5602 5599 5596 5591 5589 5588 5587 5586 5584 5582 5580 5578 5577 5574
5678 5678 5676 5673 5671 5670 5667 5663 5662 5662 5659 5656 5653 5651 5648 5645 5643 5638 5633 5629 5625 5621 5617 5613 5610 5609 5607 5605 5603 5600 5597 5594 5590 5587 5586 5585 5583 5582 5580 5578 5577 5574 5570
5672 5671 5669 5666 5664 5664 5663 5661 5659 5657 5654 5651 5649 5647 5644 5641 5638 5635 5631 5627 5622 5618 5615 5612 5609 5606 5604 5602 5600 5597 5594 5591 5587 5584 5583 5582 5580 5578 5577 5575 5573 5571 5568
5666 5665 5662 5660 5660 5659 5658 5657 5655 5653 5650 5647 5645 5643 5640 5637 5634 5631 5628 5625 5621 5618 5614 5612 5609 5605 5602 5602 5599 5595 5592 5588 5585 5581 5578 5576 5574 5573 5571 5569 5568 5567 5566
5660 5658 5657 5656 5655 5655 5653 5652 5652 5650 5646 5643 5641 5639 5636 5634 5631 5627 5624 5623 5620 5618 5616 5613 5609 5606 5604 5601 5597 5594 5591 5587 5584 5578 5574 5572 5570 5568 5567 5566 5565 5564 5563